This is the latest recevied weather packets stored in our database for station/object DJ8HS-1. If no packets are shown the sender has not sent any weather packets the latest 10 day(s).
| Time | Temp. | Humidity | Pressure | Rain* | Wind** | Luminosity | Snow |
|---|---|---|---|---|---|---|---|
| 1777817003 | 24.44° C | 22% | 0 hPa | 0 mm | - | - | - |
| 1777816703 | 25° C | 21% | 0 hPa | 0 mm | - | - | - |
| 1777816403 | 25° C | 21% | 0 hPa | 0 mm | - | - | - |
| 1777816102 | 25° C | 20% | 0 hPa | 0 mm | - | - | - |
| 1777815802 | 25° C | 20% | 0 hPa | 0 mm | - | - | - |
| 1777815502 | 26.11° C | 24% | 0 hPa | 0 mm | - | - | - |
| 1777815202 | 25.56° C | 29% | 0 hPa | 0 mm | - | - | - |
| 1777814901 | 25° C | 30% | 0 hPa | 0 mm | - | - | - |
| 1777814601 | 25° C | 30% | 0 hPa | 0 mm | - | - | - |
| 1777814301 | 25° C | 31% | 0 hPa | 0 mm | - | - | - |
| 1777814000 | 24.44° C | 31% | 0 hPa | 0 mm | - | - | - |
| 1777813700 | 23.89° C | 30% | 0 hPa | 0 mm | - | - | - |
| 1777813400 | 23.89° C | 30% | 0 hPa | 0 mm | - | - | - |
| 1777813099 | 23.33° C | 28% | 0 hPa | 0 mm | - | - | - |
| 1777812799 | 23.33° C | 29% | 0 hPa | 0 mm | - | - | - |
| 1777812499 | 23.33° C | 28% | 0 hPa | 0 mm | - | - | - |
| 1777812199 | 22.78° C | 28% | 0 hPa | 0 mm | - | - | - |
| 1777811898 | 22.78° C | 29% | 0 hPa | 0 mm | - | - | - |
| 1777811598 | 22.78° C | 29% | 0 hPa | 0 mm | - | - | - |
| 1777811298 | 22.78° C | 28% | 0 hPa | 0 mm | - | - | - |
| 1777810997 | 22.22° C | 28% | 0 hPa | 0 mm | - | - | - |
| 1777810697 | 22.78° C | 27% | 0 hPa | 0 mm | - | - | - |
| 1777810397 | 22.78° C | 27% | 0 hPa | 0 mm | - | - | - |
| 1777810096 | 22.78° C | 27% | 0 hPa | 0 mm | - | - | - |
| 1777809796 | 22.78° C | 26% | 0 hPa | 0 mm | - | - | - |
* Rain latest hour (hover to see other rain measurements)
** Current wind speed in m/s (hover to see current wind gust speed)